TimeMDT,TemperatureF,Dew PointF,Humidity,Sea Level PressureIn,VisibilityMPH,Wind Direction,Wind SpeedMPH,Gust SpeedMPH,PrecipitationIn,Events,Conditions,WindDirDegrees,DateUTC
12:56 AM,36.0,32.0,86,30.03,10.0,WNW,10.4,-,N/A,,Clear,290,2013-03-14 06:56:00
1:56 AM,37.0,32.0,82,30.04,10.0,West,10.4,-,N/A,,Clear,280,2013-03-14 07:56:00
2:56 AM,36.0,32.0,86,30.04,10.0,West,9.2,-,N/A,,Clear,280,2013-03-14 08:56:00
3:56 AM,36.0,32.0,86,30.04,10.0,West,10.4,-,N/A,,Clear,270,2013-03-14 09:56:00
4:56 AM,36.0,32.0,86,30.04,10.0,West,11.5,-,N/A,,Clear,270,2013-03-14 10:56:00
5:56 AM,37.9,33.1,83,30.08,10.0,West,15.0,-,N/A,,Clear,270,2013-03-14 11:56:00
6:56 AM,37.9,32.0,79,30.09,10.0,West,12.7,-,N/A,,Clear,270,2013-03-14 12:56:00
7:56 AM,39.9,33.1,77,30.09,10.0,West,11.5,-,N/A,,Clear,270,2013-03-14 13:56:00
8:56 AM,46.9,35.1,63,30.09,10.0,West,12.7,-,N/A,,Clear,270,2013-03-14 14:56:00
9:56 AM,52.0,36.0,54,30.08,10.0,West,12.7,-,N/A,,Clear,280,2013-03-14 15:56:00
10:56 AM,55.9,37.0,49,30.07,10.0,West,15.0,-,N/A,,Clear,260,2013-03-14 16:56:00
11:56 AM,60.1,36.0,41,30.06,10.0,WSW,15.0,-,N/A,,Clear,250,2013-03-14 17:56:00
12:56 PM,61.0,36.0,39,30.04,10.0,WSW,10.4,19.6,N/A,,Clear,250,2013-03-14 18:56:00
1:56 PM,63.0,35.1,35,30.01,10.0,West,13.8,-,N/A,,Clear,270,2013-03-14 19:56:00
2:56 PM,64.9,34.0,32,29.97,10.0,West,15.0,-,N/A,,Clear,280,2013-03-14 20:56:00
3:56 PM,64.9,35.1,33,29.98,10.0,WNW,18.4,24.2,N/A,,Clear,300,2013-03-14 21:56:00
4:56 PM,61.0,37.9,42,29.99,10.0,NNW,9.2,-,N/A,,Clear,340,2013-03-14 22:56:00
5:56 PM,55.9,37.9,51,30.00,10.0,NNE,10.4,-,N/A,,Clear,30,2013-03-14 23:56:00
6:56 PM,44.1,36.0,73,30.03,10.0,NE,15.0,-,N/A,,Overcast,50,2013-03-15 00:56:00
7:56 PM,37.0,33.1,86,30.05,10.0,NE,12.7,-,N/A,,Overcast,50,2013-03-15 01:56:00
8:16 PM,35.6,32.0,87,29.99,10.0,NE,15.0,-,N/A,,Overcast,50,2013-03-15 02:16:00
8:41 PM,33.8,30.2,87,30.00,9.0,NE,12.7,-,N/A,,Overcast,40,2013-03-15 02:41:00
8:56 PM,33.1,30.0,89,30.06,7.0,NE,13.8,-,N/A,,Overcast,40,2013-03-15 02:56:00
9:38 PM,30.2,28.4,93,30.00,4.0,NE,8.1,-,N/A,,Overcast,40,2013-03-15 03:38:00
9:56 PM,30.9,28.9,92,30.05,4.0,NE,11.5,-,N/A,,Overcast,40,2013-03-15 03:56:00
10:26 PM,30.2,28.4,93,30.01,2.5,NE,10.4,-,N/A,,Overcast,50,2013-03-15 04:26:00
10:56 PM,28.9,28.0,96,30.05,1.8,ENE,9.2,-,N/A,,Overcast,60,2013-03-15 04:56:00
11:11 PM,28.4,26.6,93,30.00,2.0,NE,9.2,-,N/A,,Overcast,50,2013-03-15 05:11:00
11:23 PM,28.4,26.6,93,29.99,1.5,ENE,10.4,-,N/A,,Overcast,70,2013-03-15 05:23:00
11:49 PM,28.4,26.6,93,29.98,0.8,ENE,8.1,-,N/A,,Overcast,60,2013-03-15 05:49:00
11:56 PM,28.0,27.0,96,30.02,1.0,NE,11.5,-,N/A,,Overcast,50,2013-03-15 05:56:00